Domov               UVHVVR             MKGP            O straneh              
ZDRAVSTVENO VARSTVO RASTLIN
  MREŽA AGROMET. POSTAJ
 ► PROGNOSTIČNA OBVESTILA
AGROMETEOROLOŠKI PODATKI -
ARSO
OBVLADOVANJE TVEGANJ ZARADI
NEUGODNIH VREMENSKIH RAZMER
  ► NARAVNE NESREČE
  ► SUŠA/MOČA
  ► NAMAKANJE
  ► ŽLED (gozdarstvo)
KARTOGRAFSKI PRIKAZI
SPLETNE POVEZAVE
PROJEKTI IN PUBLIKACIJE

AGROMETEOROLOŠKA MREŽA: VREMENSKE POSTAJE IN FENOLOŠKA OPAZOVANJA

Pregled podatkov za lokacijo Gabernik-Rogaška, meteorološka postaja 37800

Pregled senzorjev na lokaciji

ID Ime Zadnja
vrednost
Datum
zadnje
spremembe
Tip
senzorja
1826 Temperatura 2 m (°C) 5,81 °C 14.12.2017 07:00 50YA
1827 Relativna vlaga 2 m (% RH) 76,43 % RH 14.12.2017 07:00 50YA
1828 Omočenost lista (U) 0 U 14.12.2017 07:00 A730WET
1829 Padavine (mm) 0 mm 14.12.2017 07:00 Rain-O-Matic

Pregled podatkov zadnjih 24 ur

Zap.
št.
Datum in čas Gabernik-Rogaška
Omočenost
lista
Padavine Relativna
vlaga
2
m
Temperatura
2
m
0 14.12.2017 07:00 0 0 76,43 5,81
1 14.12.2017 06:30 0 0 77,68 5,69
2 14.12.2017 06:00 0 0 77,75 5,57
3 14.12.2017 05:30 0 0 79,51 5,18
4 14.12.2017 05:00 0 0 83,05 4,54
5 14.12.2017 04:30 0 0 83,1 4,4
6 14.12.2017 04:00 0 0 84,66 3,96
7 14.12.2017 03:30 0 0 83,76 4,03
8 14.12.2017 03:00 0 0 85,69 3,39
9 14.12.2017 02:30 2 0 85,81 3,2
10 14.12.2017 02:00 10 0 86,69 2,83
11 14.12.2017 01:30 10 0 89,79 2,22
12 14.12.2017 01:00 10 0 92,33 1,37
13 14.12.2017 00:30 10 0 96,65 0,22
14 14.12.2017 00:00 10 0 91,79 1,12
15 13.12.2017 23:30 10 0 92,36 1,05
16 13.12.2017 23:00 10 0 92,14 1,03
17 13.12.2017 22:30 10 0 92,09 1
18 13.12.2017 22:00 10 0 91,7 1,2
19 13.12.2017 21:30 10 0 94,31 0,81
20 13.12.2017 21:00 10 0 96,26 0,85
21 13.12.2017 20:30 10 0 97,44 0,83
22 13.12.2017 20:00 10 0 95,56 1,05
23 13.12.2017 19:30 10 0 97,12 1,1
24 13.12.2017 19:00 10 0 97,68 1,12
25 13.12.2017 18:30 10 0 99,73 1,12
26 13.12.2017 18:00 10 0 99,22 1,15
27 13.12.2017 17:30 10 0 98,75 1,15
28 13.12.2017 17:00 4 0 98,39 1,12
29 13.12.2017 16:30 1 0 97,36 1,25
30 13.12.2017 16:00 0 0 96,53 1,34
31 13.12.2017 15:30 0 0 96,73 1,37
32 13.12.2017 15:00 0 0 97,68 1,51
33 13.12.2017 14:30 0 0 98,73 1,51
34 13.12.2017 14:00 0 0 98,95 1,29
35 13.12.2017 13:30 0 0 98,51 1,32
36 13.12.2017 13:00 0 0 98,02 1,76
37 13.12.2017 12:30 0,2 99,71 1,73
38 13.12.2017 12:00 2 0,2 99,93 1,39
39 13.12.2017 11:30 8 0,4 99,93 1,25
40 13.12.2017 11:00 10 0,2 99,83 0,98
41 13.12.2017 10:30 10 0,6 99,73 1,07
42 13.12.2017 10:00 10 0,2 99,93 0,88
43 13.12.2017 09:30 10 0 99,93 0,39
44 13.12.2017 09:00 10 0 99,93 0,24
45 13.12.2017 08:30 10 0 99,93 0,17
46 13.12.2017 08:00 10 0 99,93 0,02
47 13.12.2017 07:30 10 0 99,93 -0,05
© 2011 Ministrstvo za kmetijstvo, gozdarstvo in prehrano. Vse pravice pridržane.